This demonstration page uses our WeatherBlox Daily Observations layout. Learn more.

Left ArrowRight Arrow

40.92945, -100.16068

Hourly Observations for June 30, 2016

Temp ( °F °C ) Dew Point ( °F °C ) Humidity (%) Winds ( mph kmh ) Pressure ( in mb ) Visibility ( mi km ) Precip ( " mm )
12:15 am 00:15 Partly Cloudy with Nearby Thunderstorms 70 21 67 19.2 90 90 N 15 24 29.94 1014 10 16 N/A
12:35 am 00:35 Cloudy with Nearby Thunderstorms 65 18.5 60 15.3 82 82 N 33 54 30.00 1016 5 8 0.02 0.51
12:55 am 00:55 Cloudy with Thunderstorms 64 17.9 60 15.4 85 85 N 20 31 30.03 1017 7 11 0.08 2.03
1:15 am 01:15 Cloudy 64 17.5 60 15.8 90 90 NE 17 28 30.00 1016 10 16 0.02 0.51
1:35 am 01:35 Partly Cloudy 65 18.1 60 15.8 87 87 E 16 26 29.97 1015 10 16 0.02 0.51
1:55 am 01:55 Clear with Nearby Thunderstorms 66 18.7 60 15.7 83 83 SSE 5 7 29.97 1015 10 16 0.02 0.51
2:15 am 02:15 Partly Cloudy with Nearby Thunderstorms 66 18.7 61 16 84 84 SSW 3 6 29.97 1015 10 16 N/A
2:35 am 02:35 Clear 65 18.5 61 16 85 85 SSW 10 17 29.97 1015 10 16 N/A
2:55 am 02:55 Clear 65 18.1 61 16.3 89 89 SW 8 13 29.97 1015 10 16 N/A
3:15 am 03:15 Clear 65 18.4 62 16.5 89 89 WSW 8 13 29.97 1015 10 16 N/A
3:35 am 03:35 Partly Cloudy 64 17.8 61 15.9 89 89 WSW 5 7 29.97 1015 10 16 N/A
3:55 am 03:55 Clear 64 17.5 60 15.6 89 89 Calm 29.97 1015 10 16 0.00 0.00
4:15 am 04:15 Partly Cloudy 64 17.7 60 15.6 88 88 Calm 29.97 1015 10 16 N/A
4:35 am 04:35 Mostly Cloudy 64 18 60 15.8 87 87 NNW 5 7 29.97 1015 10 16 N/A
4:55 am 04:55 Mostly Cloudy 64 17.6 61 16 90 90 NW 20 31 29.97 1015 10 16 N/A
5:15 am 05:15 Mostly Cloudy with Light Rain 65 18.2 60 15.8 86 86 NW 17 28 29.97 1015 10 16 N/A
5:35 am 05:35 Mostly Cloudy with Light Rain 64 18 60 15.8 87 87 WNW 23 37 29.97 1015 10 16 N/A
5:55 am 05:55 Cloudy with Light Rain 64 18 61 15.9 88 88 WNW 24 39 29.97 1015 10 16 N/A
6:15 am 06:15 Cloudy with Light Rain 64 18 60 15.6 86 86 WNW 25 41 29.97 1015 10 16 0.01 0.25
6:35 am 06:35 Cloudy with Light Rain 64 18 60 15.6 86 86 WNW 18 30 29.97 1015 10 16 0.01 0.25
6:55 am 06:55 Cloudy with Light Rain 65 18.2 60 15.5 84 84 NW 17 28 29.97 1015 10 16 0.02 0.51
7:15 am 07:15 Cloudy with Light Rain 66 18.7 59 15.2 80 80 WNW 18 30 29.97 1015 10 16 N/A
7:35 am 07:35 Cloudy with Light Rain 67 19.5 58 14.6 73 73 N 6 9 29.94 1014 10 16 N/A
7:55 am 07:55 Mostly Cloudy 67 19.6 59 15.1 75 75 W 7 11 29.94 1014 10 16 N/A
8:15 am 08:15 Mostly Cloudy 69 20.5 60 15.7 74 74 WSW 6 9 29.91 1013 10 16 N/A
8:35 am 08:35 Sunny 68 20.2 62 16.5 79 79 WNW 7 11 29.91 1013 10 16 N/A
8:55 am 08:55 Partly Cloudy 73 22.5 63 17.4 73 73 NNE 15 24 29.94 1014 10 16 N/A
9:15 am 09:15 Partly Cloudy 71 21.6 62 16.8 74 74 E 7 11 29.94 1014 10 16 N/A
9:35 am 09:35 Sunny 72 22 62 16.6 72 72 NNE 10 17 29.97 1015 10 16 N/A
9:55 am 09:55 Sunny 72 22.2 63 17.1 73 73 NNE 9 15 29.97 1015 10 16 N/A
10:15 am 10:15 Sunny 72 22.2 62 16.9 72 72 NNE 10 17 29.97 1015 10 16 N/A
10:35 am 10:35 Sunny 73 22.6 62 16.8 70 70 N 12 19 29.97 1015 10 16 N/A
10:55 am 10:55 Partly Cloudy 73 23 64 17.5 71 71 NNE 7 11 29.97 1015 10 16 N/A
11:15 am 11:15 Partly Cloudy 74 23.5 63 17.4 69 69 N 10 17 29.97 1015 10 16 N/A
11:35 am 11:35 Sunny 75 24 64 17.7 68 68 NNW 8 13 29.94 1014 10 16 N/A
11:55 am 11:55 Sunny 76 24.7 64 17.6 65 65 N 10 17 29.97 1015 10 16 N/A
12:15 pm 12:15 Partly Cloudy 77 25.1 63 17.3 62 62 N 10 17 29.97 1015 10 16 N/A
12:35 pm 12:35 Partly Cloudy 78 25.7 62 16.6 57 57 N 10 17 29.94 1014 10 16 N/A
12:55 pm 12:55 Sunny 79 26.2 61 16.3 55 55 N 9 15 29.94 1014 10 16 N/A
1:15 pm 13:15 Sunny 79 26.1 61 15.9 53 53 NE 9 15 29.94 1014 10 16 N/A
1:35 pm 13:35 Sunny 80 26.7 61 16.3 53 53 NNE 9 15 29.94 1014 10 16 N/A
1:55 pm 13:55 Sunny 80 26.6 61 16.1 53 53 NNE 7 11 29.94 1014 10 16 N/A
2:15 pm 14:15 Sunny 80 26.5 60 15.4 51 51 NNE 9 15 29.94 1014 10 16 N/A
2:35 pm 14:35 Sunny 81 27 62 16.5 53 53 NE 9 15 29.94 1014 10 16 N/A
2:55 pm 14:55 Sunny 81 27.4 62 16.6 52 52 NNE 8 13 29.94 1014 10 16 N/A
3:15 pm 15:15 Sunny 82 27.5 61 16.1 50 50 NNE 10 17 29.94 1014 10 16 N/A
3:35 pm 15:35 Sunny 81 27 61 15.9 51 51 NNE 10 17 29.94 1014 10 16 N/A
3:55 pm 15:55 Sunny 81 27.2 60 15.5 49 49 NNE 9 15 29.94 1014 10 16 N/A
4:15 pm 16:15 Sunny 81 27.3 60 15.6 49 49 NNE 14 22 29.94 1014 10 16 N/A
4:35 pm 16:35 Sunny 82 27.6 62 16.4 51 51 NNE 12 19 29.91 1013 10 16 N/A
4:55 pm 16:55 Partly Cloudy 80 26.8 60 15.8 51 51 NE 12 19 29.94 1014 10 16 N/A
5:15 pm 17:15 Sunny 81 27 61 15.9 51 51 NE 12 19 29.94 1014 10 16 N/A
5:35 pm 17:35 Sunny 81 27 60 15.5 49 49 NE 9 15 29.94 1014 10 16 N/A
5:55 pm 17:55 Sunny 80 26.7 59 14.8 48 48 NNE 10 17 29.91 1013 10 16 N/A
6:15 pm 18:15 Sunny 79 26.1 60 15.4 52 52 NE 9 15 29.91 1013 10 16 N/A
6:35 pm 18:35 Sunny 78 25.7 60 15.7 54 54 NE 8 13 29.91 1013 10 16 N/A
7:15 pm 19:15 Sunny 78 25.4 60 15.5 54 54 NE 9 15 29.94 1014 10 16 N/A
7:35 pm 19:35 Sunny 75 24 59 15.1 58 58 NE 9 15 29.94 1014 10 16 N/A
7:55 pm 19:55 Sunny 75 24.1 60 15.3 58 58 NE 9 15 29.94 1014 10 16 N/A
8:15 pm 20:15 Sunny 74 23.5 59 14.9 59 59 NE 8 13 29.97 1015 10 16 N/A
8:35 pm 20:35 Sunny 73 22.7 60 15.8 65 65 NE 6 9 29.97 1015 10 16 N/A
8:55 pm 20:55 Sunny 71 21.4 61 16.1 72 72 NE 6 9 30.00 1016 10 16 N/A
9:15 pm 21:15 Clear 69 20.3 61 16.3 78 78 NE 6 9 30.03 1017 10 16 N/A
9:35 pm 21:35 Clear 67 19.7 61 16 79 79 NE 6 9 30.03 1017 10 16 N/A
9:55 pm 21:55 Clear 66 19 61 16.2 84 84 NNE 6 9 30.03 1017 7 11 N/A
10:15 pm 22:15 Clear 66 19.1 60 15.6 80 80 NE 6 9 30.03 1017 10 16 N/A
10:35 pm 22:35 Clear 65 18.2 60 15.5 84 84 NNE 5 7 30.03 1017 10 16 N/A
10:55 pm 22:55 Clear 64 18 59 15.2 84 84 NE 6 9 30.03 1017 10 16 N/A
11:15 pm 23:15 Clear 64 18 60 15.3 84 84 NE 5 7 30.03 1017 10 16 N/A
11:35 pm 23:35 Clear 64 18 60 15.5 85 85 NE 5 7 30.03 1017 10 16 N/A
11:55 pm 23:55 Clear 64 17.5 59 15.2 86 86 NNE 5 7 30.09 1019 10 16 N/A

Powered by AerisWeather